Flag for Malaysia Weather past 2 weeks in Kuala Lumpur, Malaysia

Now
77 °F

Passing clouds.


Feels Like: 78 °F
Forecast: 76 / 90 °F
Wind: 1 mph from Northwest

Location: Sultan Abdul Aziz Shah-Subang

Current Time: Mar 5, 2015 at 6:46:41 AM

Latest Report: Mar 5, 2015 at 6:00 AM


Visibility: 4 mi

Pressure: 29.86 "Hg

Humidity: 89%

Dew point: 73 °F

Location of Kuala LumpurLocation

Historic Weather in Kuala Lumpur — Graph

°F

Kuala Lumpur temperature yesterday

Maximum temperature yesterday: 93 °F (at 2:00 PM)
Minimum temperature yesterday: 77 °F (at 1:00 AM)
Average temperature yesterday: 83 °F

Past Weeks' High & Low Weather Summary

 TemperatureHumidityPressure
High95 °F (Feb 21, 3:00 PM)100% (Feb 19, 3:00 AM)29.95 "Hg (Feb 19, 3:00 AM)
Low73 °F (Feb 19, 12:00 AM)39% (Feb 21, 3:00 PM)29.71 "Hg (Feb 27, 4:00 PM)
Average83 °F76%29.84 "Hg
* Reported Feb 18 5:00 AM — Mar 5 5:00 AM, Kuala Lumpur, Weather by CustomWeather, © 2015

Note: Actual official high and low records may vary slightly from our data, if they occured in-between our weather recording intervals... More about our weather records

Advertising

Kuala Lumpur weather history for previous 24 hours

 ConditionsComfort  
Time TempWeatherWind HumidityBarometerVisibility
5:00 AM
Thu, Mar 5
77 °FPassing clouds.2 mph89%29.83 "Hg4 mi
4:00 AM77 °FPassing clouds.No wind94%29.83 "Hg5 mi
3:00 AM77 °FPassing clouds.1 mph94%29.86 "Hg5 mi
2:00 AM79 °FPassing clouds.2 mph84%29.86 "Hg6 mi
1:00 AM79 °FPassing clouds.2 mph84%29.89 "Hg6 mi
12:00 AM79 °FPassing clouds.1 mph84%29.92 "HgN/A
11:00 PM
Wed, Mar 4
79 °FPassing clouds.3 mph84%29.89 "HgN/A
10:00 PM81 °FPartly cloudy.2 mph79%29.89 "HgN/A
9:00 PM82 °FPartly cloudy.6 mph74%29.86 "HgN/A
8:00 PM82 °FBroken clouds.3 mph74%29.86 "HgN/A
7:00 PM81 °FBroken clouds.2 mph79%29.83 "HgN/A
6:00 PM82 °FBroken clouds.3 mph74%29.80 "HgN/A
5:00 PM88 °FThunderstorms. Broken clouds.9 mph66%29.80 "HgN/A
4:00 PM91 °FBroken clouds.14 mph59%29.77 "HgN/A
3:00 PM93 °FBroken clouds.12 mph59%29.80 "HgN/A
2:00 PM93 °FBroken clouds.8 mph56%29.83 "HgN/A
1:00 PM91 °FBroken clouds.8 mph63%29.86 "HgN/A
12:00 PM90 °FBroken clouds.2 mph67%29.89 "HgN/A
11:00 AM88 °FBroken clouds.3 mph70%29.92 "HgN/A
10:00 AM86 °FPartly sunny.1 mph75%29.89 "Hg6 mi
9:00 AM81 °FBroken clouds.1 mph84%29.89 "Hg5 mi
8:00 AM77 °FPartly cloudy.1 mph94%29.86 "Hg5 mi
7:00 AM77 °FPartly cloudy.1 mph94%29.83 "Hg5 mi
6:00 AM77 °FPartly cloudy.1 mph89%29.80 "HgN/A
Weather by CustomWeather, © 2015

See weather overviewHow to use our weather pages